Regional Weather Roundup
Issued by NWS

Home | Current Version | Previous Version | Graphics & Text | Print | Product List | Glossary On
Versions: 1 2 3 4 5 6 7 8 9 10 11 12 13 14 15 16 17 18 19 20 21 22 23 24 25 26 27 28 29 30 31 32 33 34 35 36 37 38 39 40 41 42 43 44 45 46 47 48 49 50
000
ASUS43 KDTX 232110
RWRMI
MICHIGAN HOURLY REGIONAL WEATHER ROUNDUP
NATIONAL WEATHER SERVICE DETROIT/PONTIAC MI
400 PM EST THU FEB 23 2017

NOTE: "FAIR" INDICATES FEW OR NO CLOUDS BELOW 12,000 FEET WITH NO
SIGNIFICANT WEATHER AND/OR OBSTRUCTION TO VISIBILITY.

MIZ047>049-052>055-059>063-066>070-074>076-081>083-232200-
SOUTHEAST LOWER MICHIGAN

CITY           SKY/WX    TMP DP  RH WIND       PRES   REMARKS
ADRIAN         CLOUDY    63  44  50 NW6       29.76S
ALMA           CLOUDY    51  37  59 N13       29.83R
ANN ARBOR      MOSUNNY   63  40  42 W7        29.76R
BAD AXE        CLOUDY    48  38  69 NW3       29.82R
CARO           CLOUDY    50  39  67 N6        29.82R
DETROIT CITY   SUNNY     66  38  35 W9        29.76R
DETROIT        PTSUNNY   66  41  40 W9        29.76R
FLINT          CLOUDY    56  41  57 W9        29.80R
GROSSE ILE     MOSUNNY   55  46  72 S5        29.75R
HILLSDALE      CLOUDY    57  43  58 NW6       29.76S
HOWELL         CLOUDY    57  41  54 N8        29.78S

CITY           SKY/WX    TMP DP  RH WIND       PRES   REMARKS
JACKSON        CLOUDY    61  39  44 W9        29.77R
LAMBERTVILLE   CLOUDY    66  43  42 W5        29.75S
LANSING        CLOUDY    53  40  61 N8        29.82R
LAPEER         FAIR      58  40  50 NW10G16   29.80R
MASON          CLOUDY    57  44  62 N10       29.79S
MONROE         MOSUNNY   65  48  54 W8        29.75R
MT. CLEMENS    MOSUNNY   65  40  40 NW12      29.76R
PONTIAC        PTSUNNY   60  42  51 NW10      29.77R
PORT HOPE        N/A     41  36  82 N3        29.81R
PORT HURON     SUNNY     52  41  66 NE15      29.79R
TRI CITIES     CLOUDY    50  39  66 N12       29.83R
MIDLAND        FAIR      48  34  58 N8        29.83R
TROY           MOSUNNY   64  37  36 W8        29.79R
SAGINAW HB     MOSUNNY   52  36  54 NW5       29.82R
$$
MIZ043>046-050>051-056>058-064>065-071>073-077>080-232200-
SOUTHWEST LOWER MICHIGAN

CITY           SKY/WX    TMP DP  RH WIND       PRES   REMARKS
BATTLE CREEK   CLOUDY    52  43  71 N6        29.79F
BENTON HARBOR  CLOUDY    40  36  86 N8        29.80F WCI  34
BIG RAPIDS     CLOUDY    41  33  73 N5        29.84R
COLDWATER      CLOUDY    55  44  67 NW5       29.77F
FREMONT        PTSUNNY   45  35  66 N10       29.82F
HOLLAND        CLOUDY    44  36  73 VRB5      29.80F
GRAND RAPIDS   CLOUDY    50  38  63 N3        29.80F
IONIA          CLOUDY    51  38  61 N6        29.81S
KALAMAZOO      PTSUNNY   50  39  66 NE8       29.79F
LUDINGTON      CLOUDY    38  32  81 N7        29.87R WCI  32
MARSHALL       CLOUDY    55  43  64 NW7       29.78S
MOUNT PLEASANT CLOUDY    46  35  64 NW5       29.84R
MUSKEGON       CLOUDY    47  36  65 N10       29.79F
SOUTH HAVEN    CLOUDY    40  37  88 N6        29.80F
$$
MIZ016>042-232200-
NORTHERN LOWER MICHIGAN

CITY           SKY/WX    TMP DP  RH WIND       PRES   REMARKS
ALPENA         CLOUDY    42  33  70 W9        29.84R
BEAVER ISLAND  MOSUNNY   38  28  67 N9        29.87S WCI  31
BELLAIRE       CLOUDY    37  32  83 N6        29.87S WCI  32
CADILLAC       CLOUDY    36  31  84 N8        29.84R WCI  29
CHARLEVOIX     PTSUNNY   37  30  78 N9        29.90S WCI  30
FRANKFORT      PTSUNNY   39  31  75 N8        29.87R WCI  33
GAYLORD        CLOUDY    37  28  70 VRB6      29.82R WCI  32
GRAYLING       CLOUDY    39  32  77 NW9       29.84R WCI  32
HARBOR SPRINGS CLOUDY    37  29  73 W9        29.86S WCI  30
HOUGHTON LAKE  CLOUDY    39  32  76 NW6       29.84R WCI  35
MANISTEE       CLOUDY    39  30  70 NE7       29.86S WCI  34
OSCODA         PTSUNNY   48  34  58 N9        29.81R
PELLSTON       PTSUNNY   39  26  59 NW14      29.86R WCI  31
ROGERS CITY    CLOUDY    40  30  68 NW12G18   29.85R WCI  32
TRAVERSE CITY  CLOUDY    39  28  64 N10       29.87R WCI  32
$$
MIZ007>008-015-232200-
EASTERN UPPER MICHIGAN

CITY           SKY/WX    TMP DP  RH WIND       PRES   REMARKS
KINROSS        CLOUDY    34  24  67 NW20      29.84R WCI  23
MACKINAC ISLAN CLOUDY    36  29  76 NW7       29.85R WCI  30
NEWBERRY       CLOUDY    33  23  67 NW9       29.86R WCI  25
S. S. MARIE    MOSUNNY   37  24  59 NW14G22   29.84R WCI  28
MUNISING         N/A     34  24  67 NW12      29.88S WCI  25
$$
MIZ004>006-011>014-085-232200-
CENTRAL UPPER MICHIGAN

CITY           SKY/WX    TMP DP  RH WIND       PRES   REMARKS
MANISTIQUE     MOSUNNY   38  24  58 N14       29.87R WCI  29
ESCANABA       PTSUNNY   38  24  57 NW10      29.88S WCI  31
MENOMINEE      SUNNY     38  27  64 E13       29.87S WCI  30
SAWYER-GWINN   CLOUDY    32  25  74 NW6       29.87S WCI  26
$$
MIZ001>003-009>011-084-232200-
WESTERN UPPER MICHIGAN

CITY           SKY/WX    TMP DP  RH WIND       PRES   REMARKS
IRON MOUNTAIN  MOSUNNY   37  24  59 N10       29.85S WCI  30
HOUGHTON       MOSUNNY   32  20  61 W15       29.87R WCI  22
COPPER HARBOR    N/A     34  22  61 N12       29.88R WCI  25
IRONWOOD       CLOUDY    32  24  72 NW7       29.91S WCI  26
$$

ABBREVIATIONS USED IN REMARKS
   TC - TEMPERATURE IN CELSIUS
  WCI - WIND CHILL INDEX
   HX - HEAT INDEX
  VSB - VISIBILITY





USA.gov is the U.S. government's official web portal to all federal, state and local government web resources and services.